Home   Weather   Viersen   Past weeks

Flag for Germany Past Weather in Viersen, North Rhine-Westphalia, Germany — Yesterday and Last 2 Weeks

Now
18 °F

Clear.


Feels Like: 18 °F
Forecast: 24 / 36 °F
Wind: No wind

Location: Monchengladbach Airport

Current Time: Jan 20, 2017 at 9:19:32 am

Latest Report: Jan 20, 2017 at 8:50 am


Visibility: 5 mi

Pressure: 30.57 "Hg

Humidity: 93%

Dew Point: 16 °F

Location of ViersenLocation

Past Weather in Viersen — Graph

°F

Viersen Temperature Yesterday

Maximum temperature yesterday: 39 °F (at 3:20 pm)
Minimum temperature yesterday: 21 °F (at 8:20 am)
Average temperature yesterday: 31 °F

High & Low Weather Summary for the Past Weeks

 TemperatureHumidityPressure
High46 °F (Jan 11, 1:50 pm)100% (Jan 5, 9:50 am)30.74 "Hg (Jan 5, 9:50 am)
Low18 °F (Jan 18, 8:50 am)48% (Jan 19, 3:20 pm)29.36 "Hg (Jan 12, 8:20 pm)
Average34 °F84%30.23 "Hg
* Reported Jan 5 9:20 am — Jan 20 7:50 am, Viersen, Weather by CustomWeather, © 2017

Note: Actual official high and low records may vary slightly from our data, if they occured in-between our weather recording intervals... More about our weather records

Advertising

Viersen Weather History for the Previous 24 Hours

Scroll right to see more
 ConditionsComfort  
Time TempWeatherWind HumidityBarometerVisibility
7:50 am
Fri, Jan 20
18 °FSunny.No wind93%30.57 "Hg10 mi
8:20 pm
Thu, Jan 19
32 °FClear.6 mph64%30.60 "Hg10 mi
7:50 pm32 °FClear.6 mph64%30.60 "Hg10 mi
7:20 pm30 °FClear.3 mph69%30.60 "Hg10 mi
6:50 pm28 °FClear.5 mph74%30.60 "Hg10 mi
6:20 pm28 °FClear.3 mph74%30.60 "Hg10 mi
5:50 pm32 °FClear.5 mph69%30.60 "Hg10 mi
5:20 pm34 °FClear.5 mph70%30.60 "Hg10 mi
4:20 pm37 °FClear.3 mph56%30.60 "Hg10 mi
3:50 pm37 °FClear.3 mph60%30.60 "Hg10 mi
3:20 pm39 °FClear.3 mph48%30.60 "Hg10 mi
2:50 pm37 °FPassing clouds.5 mph52%30.60 "HgN/A
2:20 pm37 °FClear.3 mph56%30.60 "Hg10 mi
1:50 pm36 °FClear.2 mph60%30.63 "Hg10 mi
1:20 pm34 °FClear.3 mph65%30.63 "Hg10 mi
12:50 pm34 °FClear.2 mph65%30.63 "Hg10 mi
12:20 pm30 °FClear.3 mph69%30.63 "Hg10 mi
11:50 am30 °FClear.2 mph69%30.66 "Hg10 mi
11:20 am28 °FClear.3 mph74%30.66 "Hg10 mi
10:50 am28 °FClear.3 mph74%30.66 "Hg10 mi
10:20 am27 °FClear.3 mph80%30.66 "Hg10 mi
9:20 am23 °FClear.1 mph93%30.66 "Hg10 mi
Weather by CustomWeather, © 2017

See weather overviewHow to use our weather pages